STARLINK-31881, 59659

Orbit data source: Space-Track

STARLINK-31881, 59659 is a payload satellite owned by SpaceX/Seattle (US) in LEO that was launched on Mon, 06 May 2024 UTC via an FALCON 9 launch vehicle from the Air Force Eastern Test Range (AFETR). Payload-class satellites include a variety of spacecraft equipped with specific instruments for various scientific and technological missions. These include communications satellites like Starlink; space stations such as the ISS; scientific satellites like the Hubble; Earth observation satellites from companies like Planet Labs, Umbra, and HawkEye 360; GPS; miniature CubeSats for education and research; and military/defense satellites.

Loading next visibility...
Identifier
59659, 2024-084F
Orbit
LEO
Country
Flag of USUS
Related business
Manufacturer
SpaceX/Seattle
Mission
Operational Commercial Communications
Bus & Motor
STARLINK V2M, Unknown motor
Mass
730 kg wet, ~700 kg dry
Launch date (UTC)
2024-05-06 (2 years ago)
Launch vehicle
FALCON 9
Launch site
Air Force Eastern Test Range (AFETR)
Object type
Payload
Rocket body
Debris
Shape & HBR
Box + 2 Pan, 17.7 m
Radar Cross Section
33.884 m², Large (>1 m²)

Expand to show TLE details & history
Last TLE update: 16 hours ago

TLE from 16 hours ago
0 STARLINK-31881
1 59659U 24084F   26073.11139334 -.00000209  00000-0  19338-5 0  9996
2 59659  42.9988  12.9999 0000947 251.7067 108.3682 15.27575513105097
Epoch: 2026-03-14T02:40Z
TLE epoch observation values (Epoch: 2026-03-14T02:40:24.384Z)
Latitude
Longitude
161.16104°
Altitude
483.043 km
Speed
7.626 km/s
True Right ascension
00h 51m 59s
True Declination
0° 00' 00"
Sunlit
Object was in daylight at epoch
Visualization orbit readout
Latitude
Unknown
Longitude
Unknown
Altitude
Unknown
Speed
Unknown
Apparent Right ascension
Unknown
Apparent Declination
Unknown
Sunlit
N/A
Visualization observer readout
Local Sidereal Time
22:40:47
Azimuth
Unknown
Elevation
Unknown
Doppler factor
Unknown
Orbital elements
Apogee altitude
485.658 km
Perigee altitude
484.358 km
Semi-major axis
6,863.145 km
Eccentricity
0.00009
Inclination
42.9988°
RAAN
12.9999°
Arg. of periapsis
251.7067°
True anomaly
108.3785°
Mean anomaly
108.3682°
Eccentric anomaly
108.37335°
Mean motion
3.81732 °/min
Orbital period
94.31 mins
BSTAR
0.0000019338
Loading maneuver chart data...
Computing Atmospheric mass density...
Loading historical data...
Loading historical data...
Loading historical data...
Loading historical data...
Loading historical data...
Loading historical data...
Loading historical data...

Documentation

Showing up to 5 results
|